Location: Franzen
(48.6167°N, 15.3833°E)
Time: 07:50:41
(UTC+00:00)

ARIANE 5 R/B - Pass Details

Date: 06 August 2021
Orbit: 620 x 656 km, 98.1° (Epoch: 11 September)

Event Time Altitude Azimuth Distance (km) Brightness Sun altitude
Exits shadow 20:17:31 24° 160° (SSE) 1,348 3.7 -15.1°
Maximum altitude 20:20:14 83° 74° (ENE) 651 2.6 -15.4°
Drops below altitude 10° 20:24:40 10° 348° (NNW) 2,030 6.2 -15.9°
Sets 20:26:51 0° 347° (NNW) 2,938 7.2 -16.1°
